Tracking 30918 objects as of 2-Jul-2025
HD Live streaming from Space Station
objects crossing your sky now

SL-16 R/B

Track SL-16 R/B now!
10-day predictions
SL-16 R/B is classified as:


NORAD ID: 25861
Int'l Code: 1999-039B
Perigee: 622.1 km
Apogee: 642.7 km
Inclination: 98.0 °
Period: 97.2 minutes
Semi major axis: 7003 km
RCS: 13.5291 m2 (large)
Launch date: July 17, 1999
Source: Commonwealth of Independent States (former USSR) (CIS)
Launch site: TYURATAM MISSILE AND SPACE COMPLEX (TTMTR)

Note: This is a ROCKET BODY
Your satellite tracking list
Your tracking list is empty




NASA's NSSDC Master Catalog

Two Line Element Set (TLE):
1 25861U 99039B   25182.85595696  .00000393  00000-0  57316-4 0  9994
2 25861  98.0351 236.7717 0014721 356.4433   3.6672 14.81300211399721
Source of the keplerian elements: AFSPC